Regional Weather Roundup
Issued by NWS Green Bay, WI

Home | Current Version | Previous Version | Text Only | Print | Product List | Glossary On
Versions: 1 2 3 4 5 6 7 8 9 10 11 12 13 14 15 16 17 18 19 20 21 22 23 24 25 26 27 28 29 30 31 32 33 34 35 36 37 38 39 40 41 42 43 44 45 46 47 48 49 50
000
ASUS43 KGRB 251759
RWRGRB

NORTH-CENTRAL AND NORTHEAST WISCONSIN REGIONAL WEATHER ROUNDUP
NATIONAL WEATHER SERVICE GREEN BAY WI
1200 PM CST TUE NOV 25 2014

WIZ005-009-010>012-018-019-251900-
NORTH CENTRAL WISCONSIN

CITY           SKY/WX    TMP DP  RH WIND       PRES   REMARKS
IRONWOOD       CLOUDY    18  14  86 W10       29.95S WCI   6
MANITOWISH WTR NOT AVBL
ARBOR VITAE    NOT AVBL
EAGLE RIVER    NOT AVBL
LAND O LAKES   NOT AVBL
RHINELANDER    CLOUDY    18  10  71 W5        29.95R
PHILLIPS       NOT AVBL
ANTIGO         NOT AVBL
TOMAHAWK       NOT AVBL
MERRILL        NOT AVBL
$$

WIZ013-073-251900-
NORTHEAST WISCONSIN

CITY           SKY/WX    TMP DP  RH WIND       PRES   REMARKS
IRON MOUNTAIN  CLOUDY    22  13  68 NW13      29.93R WCI  10
MARINETTE      CLOUDY    27  16  63 W5        29.97R
$$

WIZ017-030-035>037-045-251900-
CENTRAL WISCONSIN

CITY           SKY/WX    TMP DP  RH WIND       PRES   REMARKS
MEDFORD        NOT AVBL
WAUSAU         FLURRIES  18  12  77 W9        29.98S WCI   7
MOSINEE        FLURRIES  18  16  93 W9        30.01R WCI   6
MARSHFIELD     PTSUNNY   18  10  71 W8        30.00F WCI   8
WISC RAPIDS    CLOUDY    19  11  70 NW9       30.04S WCI   8
STEVENS POINT  NOT AVBL
WAUPACA        NOT AVBL
SHAWANO        NOT AVBL
CLINTONVILLE   NOT AVBL
$$

WIZ038-039-048-051-251900-
FOX VALLEY

CITY           SKY/WX    TMP DP  RH WIND       PRES   REMARKS
NWS GREEN BAY  CLOUDY    24  17  74 W10       30.01R
APPLETON       CLOUDY    21  18  86 W12       30.02R WCI   9
OSHKOSH        CLOUDY    22  15  75 W7        30.03R
FOND DU LAC    CLOUDY    22  15  75 W9        30.03S
$$

WIZ022-050-052-251900-
EAST CENTRAL WISCONSIN

CITY           SKY/WX    TMP DP  RH WIND       PRES   REMARKS
STURGEON BAY   CLOUDY    25  16  68 W8        29.98R
MANITOWOC      NOT AVBL
SHEBOYGAN      CLOUDY    23  15  71 W15       30.02R
$$

LMZ563-521-522-541>543-251900-
LAKESHORE

STATION/POSITION TIME  TEMP    WIND        PRES    VSBY  WAVE
                       AIR SEA DIR/SP/G                  HT/PER
                 (UTC) (F)     (DEG/KT/KT) (MB)    (MI)  (FT/S)
SHEBOYGAN LKSHOR 1700   24 36  280/ 15/ 18 1017.7R
KEWAUNEE LKSHORE 1700   24     290/  6/ 12 1014.6R
NORTHPORT PIER   1700   27     300/ 12/ 19 1013.9S
N MID LAKE BUOY  1700   29 42  300/ 19/ 25 1013.3R         5/ 5
SISTER BAY LKSHO 1700          330/ 16/ 20   N/A
CHAMBERS ISLAND  1700   26     260/  4/ 12 1014.9R
MENOMINEE LKSHOR 1700   26     270/  6/ 11 1015.5R
$$



USA.gov is the U.S. government's official web portal to all federal, state and local government web resources and services.